Time,TemperatureF,DewpointF,PressureIn,WindDirection,WindDirectionDegrees,WindSpeedMPH,WindSpeedGustMPH,Humidity,HourlyPrecipIn,Conditions,Clouds,dailyrainin,SoftwareType,DateUTC
2013-05-24 00:12:00,-999.0,-99.9,26.35,North,-999,-999.0,-999.0,-999,0.00,,,0.00,weatherlink.com 1.10,2013-05-24 04:12:00,
2013-05-24 00:27:00,-999.0,-99.9,26.34,North,-999,-999.0,-999.0,-999,0.00,,,0.00,weatherlink.com 1.10,2013-05-24 04:27:00,
2013-05-24 00:42:00,-999.0,-99.9,26.34,North,-999,-999.0,-999.0,-999,0.00,,,0.00,weatherlink.com 1.10,2013-05-24 04:42:00,
2013-05-24 00:57:00,-999.0,-99.9,26.34,North,-999,-999.0,-999.0,-999,0.00,,,0.00,weatherlink.com 1.10,2013-05-24 04:57:00,
2013-05-24 01:12:00,-999.0,-99.9,26.34,North,-999,-999.0,-999.0,-999,0.00,,,0.00,weatherlink.com 1.10,2013-05-24 05:12:00,
2013-05-24 01:27:00,-999.0,-99.9,26.33,North,-999,-999.0,-999.0,-999,0.00,,,0.00,weatherlink.com 1.10,2013-05-24 05:27:00,
2013-05-24 01:42:00,-999.0,-99.9,26.32,North,-999,-999.0,-999.0,-999,0.00,,,0.00,weatherlink.com 1.10,2013-05-24 05:42:00,
2013-05-24 01:57:00,-999.0,-99.9,26.32,North,-999,-999.0,-999.0,-999,0.00,,,0.00,weatherlink.com 1.10,2013-05-24 05:57:00,
2013-05-24 02:12:00,-999.0,-99.9,26.32,North,-999,-999.0,-999.0,-999,0.00,,,0.00,weatherlink.com 1.10,2013-05-24 06:12:00,
2013-05-24 02:27:00,-999.0,-99.9,26.32,North,-999,-999.0,-999.0,-999,0.00,,,0.00,weatherlink.com 1.10,2013-05-24 06:27:00,
2013-05-24 02:43:00,-999.0,-99.9,26.32,North,-999,-999.0,-999.0,-999,0.00,,,0.00,weatherlink.com 1.10,2013-05-24 06:43:00,
2013-05-24 02:58:00,-999.0,-99.9,26.31,North,-999,-999.0,-999.0,-999,0.00,,,0.00,weatherlink.com 1.10,2013-05-24 06:58:00,
2013-05-24 03:13:00,-999.0,-99.9,26.29,North,-999,-999.0,-999.0,-999,0.00,,,0.00,weatherlink.com 1.10,2013-05-24 07:13:00,
2013-05-24 03:28:00,-999.0,-99.9,26.29,North,-999,-999.0,-999.0,-999,0.00,,,0.00,weatherlink.com 1.10,2013-05-24 07:28:00,
2013-05-24 03:43:00,-999.0,-99.9,26.29,North,-999,-999.0,-999.0,-999,0.00,,,0.00,weatherlink.com 1.10,2013-05-24 07:43:00,
2013-05-24 03:58:00,-999.0,-99.9,26.29,North,-999,-999.0,-999.0,-999,0.00,,,0.00,weatherlink.com 1.10,2013-05-24 07:58:00,
2013-05-24 04:13:00,-999.0,-99.9,26.29,North,-999,-999.0,-999.0,-999,0.00,,,0.00,weatherlink.com 1.10,2013-05-24 08:13:00,
2013-05-24 04:28:00,-999.0,-99.9,26.30,North,-999,-999.0,-999.0,-999,0.00,,,0.00,weatherlink.com 1.10,2013-05-24 08:28:00,
2013-05-24 04:43:00,-999.0,-99.9,26.31,North,-999,-999.0,-999.0,-999,0.00,,,0.00,weatherlink.com 1.10,2013-05-24 08:43:00,
2013-05-24 04:58:00,-999.0,-99.9,26.31,North,-999,-999.0,-999.0,-999,0.00,,,0.00,weatherlink.com 1.10,2013-05-24 08:58:00,
2013-05-24 05:13:00,-999.0,-99.9,26.32,North,-999,-999.0,-999.0,-999,0.00,,,0.00,weatherlink.com 1.10,2013-05-24 09:13:00,
2013-05-24 05:28:00,-999.0,-99.9,26.32,North,-999,-999.0,-999.0,-999,0.00,,,0.00,weatherlink.com 1.10,2013-05-24 09:28:00,
2013-05-24 05:43:00,-999.0,-99.9,26.32,North,-999,-999.0,-999.0,-999,0.00,,,0.00,weatherlink.com 1.10,2013-05-24 09:43:00,
2013-05-24 05:58:00,-999.0,-99.9,26.33,North,-999,-999.0,-999.0,-999,0.00,,,0.00,weatherlink.com 1.10,2013-05-24 09:58:00,
2013-05-24 06:14:00,-999.0,-99.9,26.34,North,-999,-999.0,-999.0,-999,0.00,,,0.00,weatherlink.com 1.10,2013-05-24 10:14:00,
2013-05-24 06:29:00,-999.0,-99.9,26.34,North,-999,-999.0,-999.0,-999,0.00,,,0.00,weatherlink.com 1.10,2013-05-24 10:29:00,
2013-05-24 06:44:00,-999.0,-99.9,26.34,North,-999,-999.0,-999.0,-999,0.00,,,0.00,weatherlink.com 1.10,2013-05-24 10:44:00,
2013-05-24 06:59:00,-999.0,-99.9,26.34,North,-999,-999.0,-999.0,-999,0.00,,,0.00,weatherlink.com 1.10,2013-05-24 10:59:00,
2013-05-24 07:14:00,51.3,49.0,26.34,WNW,292,4.0,17.0,91,0.00,,,0.00,weatherlink.com 1.10,2013-05-24 11:14:00,
2013-05-24 07:29:00,-999.0,-99.9,26.34,North,-999,-999.0,-999.0,-999,0.00,,,0.00,weatherlink.com 1.10,2013-05-24 11:29:00,
2013-05-24 07:44:00,-999.0,-99.9,26.35,North,-999,-999.0,-999.0,-999,0.00,,,0.00,weatherlink.com 1.10,2013-05-24 11:44:00,
2013-05-24 07:59:00,-999.0,-99.9,26.35,North,-999,-999.0,-999.0,-999,0.00,,,0.00,weatherlink.com 1.10,2013-05-24 11:59:00,
2013-05-24 08:14:00,-999.0,-99.9,26.36,North,-999,-999.0,-999.0,-999,0.00,,,0.00,weatherlink.com 1.10,2013-05-24 12:14:00,
2013-05-24 08:29:00,-999.0,-99.9,26.38,North,-999,-999.0,-999.0,-999,0.00,,,0.00,weatherlink.com 1.10,2013-05-24 12:29:00,
2013-05-24 08:44:00,-999.0,-99.9,26.38,North,-999,-999.0,-999.0,-999,0.00,,,0.00,weatherlink.com 1.10,2013-05-24 12:44:00,
2013-05-24 08:59:00,-999.0,-99.9,26.39,North,-999,-999.0,-999.0,-999,0.00,,,0.00,weatherlink.com 1.10,2013-05-24 12:59:00,
2013-05-24 09:14:00,-999.0,-99.9,26.41,North,-999,-999.0,-999.0,-999,0.00,,,0.00,weatherlink.com 1.10,2013-05-24 13:14:00,
2013-05-24 09:30:00,-999.0,-99.9,26.41,North,-999,-999.0,-999.0,-999,0.00,,,0.00,weatherlink.com 1.10,2013-05-24 13:30:00,
2013-05-24 09:45:00,45.2,43.0,26.42,SSE,152,13.0,25.0,92,0.00,,,0.00,weatherlink.com 1.10,2013-05-24 13:45:00,
2013-05-24 10:00:00,44.3,42.0,26.43,NE,52,0.0,27.0,92,0.00,,,0.00,weatherlink.com 1.10,2013-05-24 14:00:00,
2013-05-24 10:15:00,43.8,42.0,26.44,NNE,15,0.0,24.0,92,0.00,,,0.00,weatherlink.com 1.10,2013-05-24 14:15:00,
2013-05-24 10:30:00,43.5,41.0,26.44,SW,228,14.0,33.0,92,0.00,,,0.00,weatherlink.com 1.10,2013-05-24 14:30:00,
2013-05-24 10:45:00,43.6,42.0,26.45,ESE,122,12.0,28.0,92,0.00,,,0.00,weatherlink.com 1.10,2013-05-24 14:45:00,
2013-05-24 11:00:00,43.7,42.0,26.45,ENE,57,8.0,38.0,92,0.00,,,0.00,weatherlink.com 1.10,2013-05-24 15:00:00,
2013-05-24 11:15:00,43.5,41.0,26.46,East,97,16.0,23.0,92,0.00,,,0.00,weatherlink.com 1.10,2013-05-24 15:15:00,
2013-05-24 11:30:00,44.8,42.0,26.46,WSW,257,6.0,17.0,90,0.00,,,0.00,weatherlink.com 1.10,2013-05-24 15:30:00,
2013-05-24 11:59:00,48.1,44.0,26.46,NE,40,6.0,33.0,85,0.00,,,0.00,weatherlink.com 1.10,2013-05-24 15:59:00,
2013-05-24 12:15:00,48.2,41.0,26.46,ESE,105,17.0,44.0,77,0.00,,,0.00,weatherlink.com 1.10,2013-05-24 16:15:00,
2013-05-24 12:30:00,49.9,43.0,26.46,SE,134,24.0,25.0,76,0.00,,,0.00,weatherlink.com 1.10,2013-05-24 16:30:00,
2013-05-24 12:45:00,51.6,44.0,26.46,ESE,117,27.0,36.0,74,0.00,,,0.00,weatherlink.com 1.10,2013-05-24 16:45:00,
2013-05-24 13:00:00,52.2,43.0,26.46,SE,143,3.0,31.0,71,0.00,,,0.00,weatherlink.com 1.10,2013-05-24 17:00:00,
2013-05-24 13:15:00,52.3,42.0,26.46,ESE,113,25.0,42.0,68,0.00,,,0.00,weatherlink.com 1.10,2013-05-24 17:15:00,
2013-05-24 13:30:00,51.9,41.0,26.47,SE,137,5.0,44.0,67,0.00,,,0.00,weatherlink.com 1.10,2013-05-24 17:30:00,
2013-05-24 13:45:00,55.4,43.0,26.47,East,79,6.0,15.0,63,0.00,,,0.00,weatherlink.com 1.10,2013-05-24 17:45:00,
2013-05-24 14:00:00,52.9,41.0,26.47,WNW,300,10.0,39.0,64,0.00,,,0.00,weatherlink.com 1.10,2013-05-24 18:00:00,
2013-05-24 14:15:00,54.1,39.0,26.47,SW,217,9.0,36.0,58,0.00,,,0.00,weatherlink.com 1.10,2013-05-24 18:15:00,
2013-05-24 14:30:00,54.4,39.0,26.47,SW,232,6.0,36.0,57,0.00,,,0.00,weatherlink.com 1.10,2013-05-24 18:30:00,
2013-05-24 14:45:00,54.8,40.0,26.47,SW,229,4.0,36.0,58,0.00,,,0.00,weatherlink.com 1.10,2013-05-24 18:45:00,
2013-05-24 15:00:00,54.4,39.0,26.47,SE,126,12.0,45.0,57,0.00,,,0.00,weatherlink.com 1.10,2013-05-24 19:00:00,
2013-05-24 15:15:00,55.3,39.0,26.47,SSW,198,3.0,50.0,54,0.00,,,0.00,weatherlink.com 1.10,2013-05-24 19:15:00,
2013-05-24 15:30:00,55.4,39.0,26.47,SE,126,11.0,28.0,54,0.00,,,0.00,weatherlink.com 1.10,2013-05-24 19:30:00,
2013-05-24 15:45:00,56.2,39.0,26.47,SE,125,4.0,42.0,53,0.00,,,0.00,weatherlink.com 1.10,2013-05-24 19:45:00,
2013-05-24 16:00:00,56.3,39.0,26.47,NE,37,3.0,36.0,53,0.00,,,0.00,weatherlink.com 1.10,2013-05-24 20:00:00,
2013-05-24 16:15:00,55.5,39.0,26.48,ESE,119,8.0,46.0,55,0.00,,,0.00,weatherlink.com 1.10,2013-05-24 20:15:00,
2013-05-24 16:30:00,55.9,39.0,26.48,SW,217,5.0,46.0,53,0.00,,,0.00,weatherlink.com 1.10,2013-05-24 20:30:00,
2013-05-24 16:45:00,56.0,38.0,26.48,SSW,205,8.0,42.0,51,0.00,,,0.00,weatherlink.com 1.10,2013-05-24 20:45:00,
2013-05-24 17:00:00,55.6,38.0,26.48,SE,130,5.0,43.0,52,0.00,,,0.00,weatherlink.com 1.10,2013-05-24 21:00:00,
2013-05-24 17:15:00,56.3,38.0,26.48,ESE,119,8.0,34.0,51,0.00,,,0.00,weatherlink.com 1.10,2013-05-24 21:15:00,
2013-05-24 17:30:00,55.8,36.0,26.49,South,186,11.0,46.0,48,0.00,,,0.00,weatherlink.com 1.10,2013-05-24 21:30:00,
2013-05-24 17:45:00,55.7,37.0,26.49,East,100,14.0,56.0,49,0.00,,,0.00,weatherlink.com 1.10,2013-05-24 21:45:00,
2013-05-24 18:00:00,55.5,37.0,26.48,ESE,105,23.0,36.0,50,0.00,,,0.00,weatherlink.com 1.10,2013-05-24 22:00:00,
2013-05-24 18:15:00,55.1,38.0,26.49,ESE,119,25.0,38.0,52,0.00,,,0.00,weatherlink.com 1.10,2013-05-24 22:15:00,
2013-05-24 18:30:00,55.1,37.0,26.48,East,79,11.0,32.0,50,0.00,,,0.00,weatherlink.com 1.10,2013-05-24 22:30:00,
2013-05-24 18:45:00,54.6,36.0,26.48,SE,141,24.0,47.0,50,0.00,,,0.00,weatherlink.com 1.10,2013-05-24 22:45:00,
2013-05-24 19:00:00,54.6,37.0,26.48,ENE,73,8.0,22.0,51,0.00,,,0.00,weatherlink.com 1.10,2013-05-24 23:00:00,
2013-05-24 19:15:00,54.2,37.0,26.48,SE,124,6.0,34.0,53,0.00,,,0.00,weatherlink.com 1.10,2013-05-24 23:15:00,
2013-05-24 19:30:00,53.4,35.0,26.50,SSW,213,6.0,34.0,50,0.00,,,0.00,weatherlink.com 1.10,2013-05-24 23:30:00,
2013-05-24 19:45:00,52.3,34.0,26.49,NE,40,12.0,45.0,51,0.00,,,0.00,weatherlink.com 1.10,2013-05-24 23:45:00,
2013-05-24 20:00:00,51.4,34.0,26.50,NE,42,4.0,39.0,52,0.00,,,0.00,weatherlink.com 1.10,2013-05-25 00:00:00,
2013-05-24 20:15:00,51.2,34.0,26.50,East,88,0.0,42.0,53,0.00,,,0.00,weatherlink.com 1.10,2013-05-25 00:15:00,
2013-05-24 20:31:00,-999.0,-99.9,26.50,North,-999,-999.0,-999.0,-999,0.00,,,0.00,weatherlink.com 1.10,2013-05-25 00:31:00,
2013-05-24 20:46:00,-999.0,-99.9,26.51,North,-999,-999.0,-999.0,-999,0.00,,,0.00,weatherlink.com 1.10,2013-05-25 00:46:00,
2013-05-24 21:01:00,-999.0,-99.9,26.51,North,-999,-999.0,-999.0,-999,0.00,,,0.00,weatherlink.com 1.10,2013-05-25 01:01:00,
2013-05-24 21:16:00,-999.0,-99.9,26.52,North,-999,-999.0,-999.0,-999,0.00,,,0.00,weatherlink.com 1.10,2013-05-25 01:16:00,
2013-05-24 21:31:00,-999.0,-99.9,26.52,North,-999,-999.0,-999.0,-999,0.00,,,0.00,weatherlink.com 1.10,2013-05-25 01:31:00,
2013-05-24 21:46:00,-999.0,-99.9,26.52,North,-999,-999.0,-999.0,-999,0.00,,,0.00,weatherlink.com 1.10,2013-05-25 01:46:00,
2013-05-24 22:01:00,-999.0,-99.9,26.53,North,-999,-999.0,-999.0,-999,0.00,,,0.00,weatherlink.com 1.10,2013-05-25 02:01:00,
2013-05-24 22:16:00,-999.0,-99.9,26.54,North,-999,-999.0,-999.0,-999,0.00,,,0.00,weatherlink.com 1.10,2013-05-25 02:16:00,
2013-05-24 22:31:00,-999.0,-99.9,26.54,North,-999,-999.0,-999.0,-999,0.00,,,0.00,weatherlink.com 1.10,2013-05-25 02:31:00,
2013-05-24 22:46:00,-999.0,-99.9,26.54,North,-999,-999.0,-999.0,-999,0.00,,,0.00,weatherlink.com 1.10,2013-05-25 02:46:00,
2013-05-24 23:01:00,-999.0,-99.9,26.54,North,-999,-999.0,-999.0,-999,0.00,,,0.00,weatherlink.com 1.10,2013-05-25 03:01:00,
2013-05-24 23:16:00,-999.0,-99.9,26.55,North,-999,-999.0,-999.0,-999,0.00,,,0.00,weatherlink.com 1.10,2013-05-25 03:16:00,
2013-05-24 23:31:00,-999.0,-99.9,26.55,North,-999,-999.0,-999.0,-999,0.00,,,0.00,weatherlink.com 1.10,2013-05-25 03:31:00,
2013-05-24 23:47:00,-999.0,-99.9,26.55,North,-999,-999.0,-999.0,-999,0.00,,,0.00,weatherlink.com 1.10,2013-05-25 03:47:00,